[[{"header":{"parameterUnit":"m.s-1","parameterCategory":1,"la1":30.2992,"la2":30.254,"lo1":-89.0895,"lo2":-89.0443,"dy":0.0025,"dx":0.0025,"nx":19,"ny":19,"refTime":"2026-03-28T09:00:00:Z","depth":0,"parameterNumber":2,"parameterNumberName":"U-component_of_WINDS"},"data":[0,0,0,-1.4849,-1.485,-1.4863,-1.4863,-1.4894,-1.4895,0,0,0,0,0,0,0,0,0,0,0,-1.4854,-1.4854,-1.4849,-1.485,-1.4863,-1.4863,-1.4894,-1.4895,0,0,0,0,0,0,0,0,0,0,0,-1.4853,-1.4854,-1.4854,-1.485,-1.4863,-1.4863,-1.4894,-1.4879,0,0,0,0,0,0,0,0,0,0,-1.4864,-1.4876,-1.4854,-1.4855,-1.485,-1.4863,-1.4863,-1.4878,-1.488,-1.4894,0,-1.4909,0,-1.4902,-1.4898,-1.4898,0,0,0,-1.4844,-1.4874,-1.487,-1.4855,-1.485,-1.4863,-1.4855,-1.4879,-1.4881,-1.4897,-1.4909,-1.491,-1.4903,-1.4898,-1.4898,-1.4999,-1.5,0,0,-1.4843,-1.4861,-1.4869,-1.4872,-1.487,-1.4855,-1.4856,-1.488,-1.4895,-1.4909,-1.491,-1.4903,-1.4898,-1.4899,-1.4998,-1.4999,0,0,0,-1.4845,-1.486,-1.4855,-1.4871,-1.4872,-1.4855,-1.4856,-1.4894,-1.4891,-1.4911,-1.4904,-1.4899,-1.4899,-1.4997,-1.4999,-1.5053,0,0,0,-1.4844,-1.4861,-1.4855,-1.4866,-1.4872,-1.4883,-1.487,-1.4889,-1.4891,-1.4904,-1.4899,-1.49,-1.4997,-1.4998,-1.505,-1.5077,0,0,0,-1.485,-1.4862,-1.4867,-1.4867,-1.4873,-1.4882,-1.488,-1.4889,-1.4887,-1.4898,-1.49,-1.4996,-1.4998,-1.5047,-1.5072,-1.5109,0,0,0,-1.4861,-1.4915,-1.4868,-1.4925,-1.4874,-1.4916,-1.488,-1.4911,-1.4926,-1.4899,-1.4997,-1.4998,-1.5046,-1.5069,-1.5106,-1.5144,-1.5162,0,0,-1.494,-1.4925,-1.4958,-1.4916,-1.4971,-1.4912,-1.4975,-1.4973,-1.4958,-1.4986,-1.4989,-1.5051,-1.5072,-1.5108,-1.525,-1.5264,0,0,0,-1.4989,-1.5012,-1.5023,-1.5038,-1.5037,-1.5039,-1.5025,-1.5024,-1.5047,-1.4976,-1.5073,-1.5085,-1.5106,-1.5124,-1.5135,-1.5153,-1.5007,-1.5007,-1.5007,-1.5126,-1.5103,-1.5155,-1.5134,-1.5149,-1.5134,-1.5144,-1.514,-1.5113,-1.5137,-1.5146,-1.5234,-1.5256,-1.5264,-1.5283,-1.5163,-1.5163,-1.5163,-1.5163,-1.524,-1.527,-1.5231,-1.5269,-1.5244,-1.5275,-1.5262,-1.5242,-1.5267,-1.5226,-1.5243,-1.5201,-1.528,-1.5295,-1.5167,-1.5166,-1.5166,-1.5166,-1.5165,-1.5329,-1.5339,-1.5336,-1.5355,-1.5373,-1.5349,-1.5375,-1.5351,-1.533,-1.5347,-1.5354,-1.5353,-1.535,-1.5351,-1.5352,-1.5352,-1.5352,-1.5352,-1.5353,-1.5423,-1.5417,-1.5442,-1.5445,-1.5451,-1.5456,-1.544,-1.5446,-1.5447,-1.5428,-1.5428,-1.5399,-1.5291,-1.5266,-1.5357,-1.5356,-1.5356,-1.5355,-1.5355,-1.555,-1.5517,-1.5555,-1.5561,-1.5562,-1.5581,-1.555,-1.5564,-1.5565,-1.5579,-1.5545,-1.5469,-1.5454,-1.5444,-1.5423,-1.5549,-1.5549,-1.5549,-1.5549,-1.5626,-1.5615,-1.5648,-1.566,-1.5668,-1.5644,-1.5688,-1.5676,-1.5659,-1.5658,-1.5636,-1.5605,-1.5596,-1.5586,-1.5573,-1.5553,-1.571,-1.571,-1.571,-1.5703,-1.5691,-1.5734,-1.5715,-1.5713,-1.5713,-1.5754,-1.577,-1.5743,-1.5716,-1.5657,-1.5651,-1.56,-1.5585,-1.5559,-1.554,-1.5503,0,0]},{"header":{"parameterUnit":"m.s-1","parameterCategory":1,"la1":30.2992,"la2":30.254,"lo1":-89.0895,"lo2":-89.0443,"dy":0.0025,"dx":0.0025,"nx":19,"ny":19,"refTime":"2026-03-28T09:00:00:Z","depth":0,"parameterNumber":3,"parameterNumberName":"V-component_of_WINDS"},"data":[0,0,0,-7.9049,-7.9053,-7.9205,-7.9205,-7.9411,-7.9413,0,0,0,0,0,0,0,0,0,0,0,-7.9015,-7.9017,-7.9049,-7.9053,-7.9205,-7.9205,-7.9411,-7.9413,0,0,0,0,0,0,0,0,0,0,0,-7.9014,-7.9016,-7.9019,-7.9054,-7.9205,-7.9205,-7.941,-7.929,0,0,0,0,0,0,0,0,0,0,-7.914,-7.9121,-7.9016,-7.9019,-7.9055,-7.9204,-7.9205,-7.9284,-7.9298,-7.9348,0,-7.94,0,-7.941,-7.9428,-7.9429,0,0,0,-7.9043,-7.911,-7.9141,-7.9019,-7.9056,-7.9204,-7.9133,-7.9292,-7.9307,-7.9366,-7.9403,-7.941,-7.9414,-7.9429,-7.943,-7.9763,-7.9765,0,0,-7.9035,-7.9047,-7.9131,-7.9152,-7.9134,-7.9129,-7.9138,-7.9301,-7.9339,-7.9403,-7.9414,-7.9417,-7.9431,-7.9432,-7.9762,-7.9764,0,0,0,-7.9017,-7.9042,-7.9069,-7.9144,-7.9171,-7.9133,-7.9144,-7.9332,-7.934,-7.9416,-7.9419,-7.9432,-7.9435,-7.9759,-7.9762,-7.9875,0,0,0,-7.9012,-7.9031,-7.9066,-7.9074,-7.9168,-7.9254,-7.9172,-7.9329,-7.9347,-7.9418,-7.9432,-7.9437,-7.9757,-7.9761,-7.9867,-7.9926,0,0,0,-7.9001,-7.903,-7.9056,-7.9075,-7.9141,-7.9251,-7.9268,-7.9332,-7.9349,-7.9429,-7.9437,-7.9756,-7.976,-7.986,-7.9914,-8.0018,0,0,0,-7.8992,-7.9151,-7.9058,-7.9237,-7.914,-7.9321,-7.9267,-7.94,-7.9482,-7.9433,-7.9757,-7.9762,-7.9858,-7.9907,-8.0011,-8.0108,-8.015,0,0,-7.9199,-7.9177,-7.9281,-7.9202,-7.9404,-7.9297,-7.9513,-7.9574,-7.9568,-7.9697,-7.9705,-7.987,-7.9913,-8.0017,-8.038,-8.0414,0,0,0,-7.9351,-7.9426,-7.9476,-7.9557,-7.9611,-7.9661,-7.9688,-7.971,-7.9821,-7.9639,-7.9935,-7.996,-8.002,-8.0066,-8.0095,-8.0145,-7.9784,-7.9783,-7.9783,-7.966,-7.9648,-7.982,-7.9827,-7.9905,-7.9933,-7.9995,-8.0029,-7.999,-8.0061,-8.0099,-8.0322,-8.0376,-8.0398,-8.0451,-8.0149,-8.015,-8.015,-8.015,-7.9963,-8.0068,-8.0017,-8.0166,-8.0151,-8.0273,-8.0306,-8.0275,-8.0385,-8.0291,-8.0343,-8.0243,-8.0435,-8.048,-8.0159,-8.0157,-8.0156,-8.0156,-8.0155,-8.0165,-8.0213,-8.0241,-8.0358,-8.0448,-8.0447,-8.0558,-8.0538,-8.052,-8.0572,-8.0611,-8.0609,-8.0605,-8.0592,-8.0593,-8.0594,-8.0594,-8.0595,-8.0595,-8.0363,-8.0391,-8.0489,-8.0561,-8.0611,-8.0674,-8.0705,-8.0752,-8.0799,-8.0776,-8.0776,-8.0731,-8.0457,-8.0389,-8.0607,-8.0605,-8.0604,-8.0603,-8.0602,-8.0675,-8.0603,-8.0753,-8.0804,-8.0887,-8.0979,-8.0954,-8.1052,-8.1088,-8.1143,-8.1087,-8.0888,-8.0861,-8.0838,-8.0782,-8.1089,-8.1089,-8.1089,-8.1089,-8.0846,-8.0832,-8.0983,-8.1066,-8.1144,-8.1138,-8.1305,-8.133,-8.1343,-8.1364,-8.1317,-8.124,-8.1218,-8.1205,-8.1174,-8.1121,-8.1508,-8.1508,-8.1508,-8.1037,-8.1031,-8.1179,-8.1196,-8.126,-8.1314,-8.1472,-8.1565,-8.1564,-8.1525,-8.138,-8.1363,-8.1238,-8.1199,-8.1156,-8.1109,-8.1011,0,0]}]]